De Queen, AR

9:08 PM CDT on June 25, 2017 (GMT -0500)
Helms Sevier County

Weather History for KDEQ - November, 2011

Change the Weather History Date:

Sunday, November 20, 2011

  Actual Average Record
Temperature  
Mean Temperature 72 °F 50 °F  
Max Temperature 80 °F 63 °F 80 °F (2011)
Min Temperature 63 °F 37 °F 19 °F (1951)
Degree Days  
Heating Degree Days 0 15  
Month to date heating degree days 158 221  
Since 1 July heating degree days 308 354  
Cooling Degree Days 7 0  
Month to date cooling degree days 27 5  
Year to date cooling degree days 2521 1939  
Growing Degree Days 21 (Base 50)    
Moisture  
Dew Point 66 °F    
Average Humidity 76    
Maximum Humidity 93    
Minimum Humidity 58    
Precipitation  
Precipitation T in 0.16 in 1.95 in (1988)
Month to date precipitation 0.82 3.43  
Year to date precipitation 28.79 43.15  
Snow  
Snow 0.00 in - - ()
Month to date snowfall 0.0  
Since 1 July snowfall 0.0  
Since 1 September snowfall 0.0  
Snow Depth 0.00 in    
Sea Level Pressure  
Sea Level Pressure 30.03 in    
Wind  
Wind Speed 4 mph (South)    
Max Wind Speed 23 mph    
Max Gust Speed 31 mph    
Visibility 10 miles    
Events Rain , Thunderstorm    
T = Trace of Precipitation, MM = Missing Value Source: NWS Daily Summary

Daily Weather History Graph

Daily Weather History Graph

Search for Another Location

Airport or City:

Trip Planner

Search our weather history database for the weather conditions in past years. The results will help you decide how hot, cold, wet, or windy it might be!

Date:

Astronomy

Nov. 20, 2011 Rise Set
Actual Time 6:54 AM CST 5:11 PM CST
Civil Twilight 6:27 AM CST 5:38 PM CST
Nautical Twilight 5:57 AM CST 6:08 PM CST
Astronomical Twilight 5:27 AM CST 6:38 PM CST
Moon 1:37 AM CST (11/20) 1:49 PM CST (11/20)
Length of Visible Light 11h 10m
Length of Day
10h 16m
Waning Crescent, 27% of the Moon is Illuminated
Nov 20
Waning Crescent
Nov 25
New
Dec 2
First Quarter
Dec 10
Full
Dec 17
Last Quarter

Hourly Weather History & Observations

Time (CST) Temp. Heat Index Dew Point Humidity Pressure Visibility Wind Dir Wind Speed Gust Speed Precip Events Conditions
12:11 AM 69.8 °F - 64.4 °F 83% 29.96 in 10.0 mi SE 5.8 mph - N/A   Overcast
12:25 AM 69.8 °F - 64.4 °F 83% 29.96 in 10.0 mi Variable 5.8 mph - N/A   Overcast
12:53 AM 71.1 °F - 64.9 °F 81% 29.95 in 10.0 mi SSE 6.9 mph - N/A   Overcast
1:53 AM 70.0 °F - 64.9 °F 84% 29.95 in 10.0 mi Variable 4.6 mph - N/A   Overcast
2:53 AM 70.0 °F - 64.9 °F 84% 29.96 in 10.0 mi Calm Calm - N/A   Overcast
3:53 AM 70.0 °F - 66.0 °F 87% 29.96 in 10.0 mi Calm Calm - N/A   Overcast
4:53 AM 69.1 °F - 66.0 °F 90% 29.97 in 10.0 mi SSE 4.6 mph - N/A   Mostly Cloudy
5:24 AM 69.8 °F - 66.2 °F 88% 29.99 in 10.0 mi SE 4.6 mph - N/A   Mostly Cloudy
5:53 AM 69.1 °F - 66.0 °F 90% 29.99 in 10.0 mi SE 4.6 mph - N/A   Mostly Cloudy
6:53 AM 68.0 °F - 66.0 °F 93% 30.01 in 10.0 mi Calm Calm - N/A   Mostly Cloudy
7:20 AM 69.8 °F - 66.2 °F 88% 30.04 in 9.0 mi Calm Calm - N/A   Mostly Cloudy
7:53 AM 69.1 °F - 66.9 °F 93% 30.04 in 10.0 mi Calm Calm - 0.00 in Rain Light Rain
8:38 AM 71.6 °F - 68.0 °F 88% 30.06 in 10.0 mi SE 5.8 mph - 0.00 in   Mostly Cloudy
8:53 AM 72.0 °F - 68.0 °F 87% 30.06 in 10.0 mi SE 4.6 mph - 0.00 in   Overcast
9:53 AM 73.0 °F - 68.0 °F 84% 30.07 in 10.0 mi SSE 5.8 mph - N/A   Overcast
10:53 AM 75.0 °F - 69.1 °F 82% 30.07 in 10.0 mi South 5.8 mph - N/A   Mostly Cloudy
11:53 AM 78.1 °F - 68.0 °F 71% 30.05 in 10.0 mi South 9.2 mph 17.3 mph N/A   Scattered Clouds
12:53 PM 79.0 °F - 66.9 °F 66% 30.03 in 10.0 mi South 9.2 mph - N/A   Scattered Clouds
1:53 PM 80.1 °F 82.1 °F 66.0 °F 62% 30.00 in 10.0 mi Variable 5.8 mph - N/A   Mostly Cloudy
2:53 PM 79.0 °F - 66.0 °F 64% 30.01 in 10.0 mi South 6.9 mph - N/A   Scattered Clouds
3:53 PM 80.1 °F 81.9 °F 64.9 °F 60% 30.00 in 10.0 mi SSE 5.8 mph - N/A   Clear
4:53 PM 75.0 °F - 66.0 °F 73% 30.00 in 10.0 mi East 3.5 mph - N/A   Clear
5:53 PM 70.0 °F - 66.0 °F 87% 30.04 in 10.0 mi Calm Calm - N/A   Mostly Cloudy
6:53 PM 69.1 °F - 66.0 °F 90% 30.05 in 10.0 mi Calm Calm - 0.00 in Rain Light Rain
7:29 PM 73.4 °F - 66.2 °F 78% 30.07 in 10.0 mi SSE 11.5 mph - 0.00 in Rain , Thunderstorm Light Rain
7:45 PM 71.6 °F - 66.2 °F 83% 30.05 in 10.0 mi SE 6.9 mph - 0.00 in Rain Light Rain
8:53 PM 69.1 °F - 66.9 °F 93% 30.05 in 10.0 mi SW 4.6 mph - 0.00 in   Mostly Cloudy
9:03 PM 69.8 °F - 66.2 °F 88% 30.05 in 10.0 mi SSW 4.6 mph - N/A   Overcast
9:12 PM 69.8 °F - 66.2 °F 88% 30.05 in 10.0 mi SW 4.6 mph - N/A   Overcast
9:28 PM 68.0 °F - 66.2 °F 94% 30.05 in 10.0 mi WSW 4.6 mph - 0.00 in   Mostly Cloudy
9:53 PM 68.0 °F - 66.0 °F 93% 30.04 in 10.0 mi West 3.5 mph - 0.00 in   Mostly Cloudy
10:01 PM 68.0 °F - 66.2 °F 94% 30.04 in 10.0 mi West 3.5 mph - N/A   Mostly Cloudy
10:09 PM 68.0 °F - 64.4 °F 88% 30.05 in 10.0 mi Calm Calm - N/A Thunderstorm Mostly Cloudy
10:16 PM 66.2 °F - 64.4 °F 94% 30.05 in 10.0 mi WSW 4.6 mph - N/A Thunderstorm Mostly Cloudy
10:30 PM 66.2 °F - 64.4 °F 94% 30.05 in 10.0 mi Calm Calm - N/A   Overcast
10:53 PM 66.9 °F - 64.9 °F 93% 30.04 in 10.0 mi Calm Calm - N/A   Overcast
11:02 PM 66.2 °F - 64.4 °F 94% 30.04 in 10.0 mi Calm Calm - 0.00 in Rain , Thunderstorm Light Rain
11:16 PM 66.2 °F - 64.4 °F 94% 30.06 in - SW 20.7 mph 31.1 mph 0.00 in Thunderstorm Thunderstorm
11:45 PM 62.6 °F - 60.8 °F 94% 30.07 in 10.0 mi WSW 10.4 mph - 0.00 in Thunderstorm Thunderstorm
11:53 PM 63.0 °F - 60.1 °F 90% 30.06 in 10.0 mi SW 11.5 mph - 0.00 in Thunderstorm Overcast